Location: Badlands Tank
(34.7185°N, 107.0376°W)
Time: 12:40:33
(UTC+00:00)

CZ-2D R/B - Pass Details

Date: 14 August 2025
Orbit: 788 x 842 km, 98.9° (Epoch: 12 April)

Event Time Altitude Azimuth Distance (km) Brightness Sun altitude
Rises 10:07:07 0° 4° (N) 3,312 5.9 -25.9°
Reaches altitude 10° 10:09:33 10° 357° (N) 2,386 5.0 -25.6°
Enters shadow 10:14:05 39° 299° (WNW) 1,201 2.8 -24.9°
